Řízení letového provozu České republiky  
Aktualizace dat:  27.05.2018 00:58:06 UTC English version
   METEO Zobrazení stránky:  27.05.2018 00:58:58 UTC  
vysvětlivky
METAR EDDB 270050Z 03005KT CAVOK 16/13 Q1021 NOSIG=
METAR EDDC 270050Z VRB01KT CAVOK 15/11 Q1021=
METAR EDDE 270050Z 27003KT CAVOK 15/13 Q1021=
METAR EDDF 270050Z 02005KT CAVOK 18/15 Q1019 NOSIG=
METAR EDDM 270050Z VRB01KT CAVOK 12/12 Q1020 NOSIG=
METAR EDDN 270050Z 09005KT CAVOK 15/13 Q1020=
METAR EDDP 270050Z 04004KT CAVOK 15/11 Q1021 NOSIG=
METAR EDDT 270050Z 02005KT 340V050 CAVOK 16/13 Q1022=
METAR EDQM NIL
METAR EPBY 270030Z 11005KT CAVOK 15/13 Q1022 =
METAR EPGD 270030Z 09004KT 5000 0700W BCFG BR NSC 13/13 Q1023 =
METAR EPKK 270030Z 06004KT CAVOK 14/13 Q1021 =
METAR EPKT 270030Z VRB02KT 6000 MIFG NSC 11/11 Q1022 =
METAR EPLL 270030Z 09002KT 7000 MIFG NSC 14/13 Q1022 =
METAR EPPO 270030Z 11006KT CAVOK 16/14 Q1022 =
METAR EPRZ 270030Z 08004KT CAVOK 15/12 Q1022 =
METAR EPWA 270030Z 07005KT CAVOK 16/15 Q1023 TEMPO 5000 BR=
METAR EPWR 270030Z VRB01KT CAVOK 14/11 Q1021 =
METAR LHBP 270030Z VRB03KT CAVOK 15/15 Q1021 NOSIG=
METAR LHSM NIL
METAR LKCV 270000Z 15003KT CAVOK 16/11 Q1021 NOSIG RMK BLU BLU=
METAR LKKB 270000Z VRB02KT CAVOK 16/11 Q1021 RMK BLU=
METAR LKKU NIL
METAR LKKV 270000Z 30003KT CAVOK 15/11 Q1022 RMK REG QNH 1019=
METAR LKLN 270000Z AUTO 00000KT 9999 BKN120 14/12 Q1022=
METAR LKMT 270030Z VRB02KT CAVOK 14/12 Q1022 NOSIG RMK REG QNH 1019=
METAR LKNA 270000Z 36005KT CAVOK 15/12 Q1022 RMK BLU=
METAR LKPD 270000Z VRB02KT CAVOK 14/09 Q1021 RMK BLU=
METAR LKPR 270030Z VRB02KT CAVOK 14/10 Q1021 NOSIG RMK REG QNH 1019=
METAR LKTB 270030Z VRB02KT CAVOK 16/11 Q1021 NOSIG RMK REG QNH 1019=
METAR LKVO NIL
METAR LOWI 270050Z AUTO VRB02KT 9999 FEW060 16/12 Q1021=
METAR LOWL 270050Z AUTO 27003KT 9999 NSC 15/12 Q1020=
METAR LOWS 270050Z AUTO 14004KT 110V180 9999 SCT250 13/11 Q1021=
METAR LOWW 270050Z 16003KT CAVOK 15/14 Q1021 NOSIG=
METAR LZIB 270030Z VRB01KT 9999 MIFG NSC 18/15 Q1020=
METAR LZKZ 270030Z 04004KT CAVOK 15/13 Q1021=
METAR LZPP 270030Z AUTO VRB01KT 9999 NCD 14/13 Q1021=
METAR LZSL 270030Z 00000KT 9999 SCT058 14/12 Q1022=
METAR LZTT 270030Z 29002KT CAVOK 10/10 Q1023=
METAR LZZI 270030Z VRB01KT CAVOK 14/12 Q1022=